Location: Innsbruck
(47.2657°N, 11.3914°E)
Time: 11:22:34
(UTC+01:00)

XW-2F - Pass Details

Date: 09 December 2021
Orbit: 495 x 515 km, 97.5° (Epoch: 15 January)

Event Time Altitude Azimuth Distance (km) Brightness Sun altitude
Rises 17:17:09 0° 158° (SSE) 2,608 ? -8.7°
Reaches altitude 10° 17:19:14 10° 155° (SSE) 1,730 ? -9.0°
Maximum altitude 17:22:55 63° 74° (ENE) 578 ? -9.6°
Drops below altitude 10° 17:26:40 10° 353° (N) 1,754 ? -10.2°
Sets 17:28:48 0° 351° (N) 2,648 ? -10.5°
